EW3328 Weather Reports


time (UTC)temp
C
wind
direction
speed
KPH
gust
KPH
rain 1hr
cm
rain 24hr
cm
rain mn
cm
humidity
%
barometer
mb
20190422210325 16 315 1.6 0.0 0.00 0.00 0.00 44 1006.4
20190422205256 16 315 1.6 6.4 0.00 0.00 0.00 44 1006.4
20190422204227 17 0 4.8 9.7 0.00 0.00 0.00 41 1006.4
20190422203151 17 0 4.8 9.7 0.00 0.00 0.00 41 1006.4
20190422152114 21 90 3.2 9.7 0.00 0.00 0.00 36 1005.3
20190422151039 21 45 0.0 4.8 0.00 0.00 0.00 37 1005.3
20190422150033 22 68 0.0 0.0 0.00 0.00 0.00 36 1005.3
20190422145018 22 45 0.0 0.0 0.00 0.00 0.00 36 1005.3
20190422144012 23 90 0.0 0.0 0.00 0.00 0.00 36 1005.3
20190422142938 23 90 0.0 0.0 0.00 0.00 0.00 33 1005.3
20190422141929 23 90 0.0 0.0 0.00 0.00 0.00 33 1006.4
20190422140924 23 68 0.0 0.0 0.00 0.00 0.00 29 1006.4
20190422135922 23 90 0.0 0.0 0.00 0.00 0.00 29 1006.4
20190422134911 23 90 0.0 0.0 0.00 0.00 0.00 32 1006.4
20190422133846 23 90 0.0 0.0 0.00 0.00 0.00 33 1006.4
20190422132829 24 45 0.0 0.0 0.00 0.00 0.00 22 1006.4
20190422131754 23 135 0.0 0.0 0.00 0.00 0.00 26 1006.4
20190422130730 24 90 0.0 0.0 0.00 0.00 0.00 29 1007.4
20190422125709 24 68 0.0 0.0 0.00 0.00 0.00 26 1007.4
20190422124641 25 45 0.0 0.0 0.00 0.00 0.00 26 1007.4
20190422123638 23 23 0.0 0.0 0.00 0.00 0.00 27 1007.4
20190422122552 23 113 0.0 0.0 0.00 0.00 0.00 29 1007.4
20190422121531 23 90 0.0 0.0 0.00 0.00 0.00 30 1007.4
20190422120515 24 23 0.0 0.0 0.00 0.00 0.00 31 1007.4
20190422115447 24 180 0.0 0.0 0.00 0.00 0.00 29 1007.4
20190422114416 24 270 0.0 0.0 0.00 0.00 0.00 29 1008.5
20190422113339 24 203 0.0 0.0 0.00 0.00 0.00 30 1007.4
20190422112322 25 225 0.0 0.0 0.00 0.00 0.00 33 1007.4
20190422111312 24 68 0.0 0.0 0.00 0.00 0.00 29 1008.5
20190422110243 23 158 0.0 0.0 0.00 0.00 0.00 29 1008.5
20190422105215 23 248 0.0 0.0 0.00 0.00 0.00 35 1008.5
20190422104157 23 158 0.0 0.0 0.00 0.00 0.00 32 1008.5
20190422103135 22 68 0.0 0.0 0.00 0.00 0.00 31 1008.5
20190422102111 22 23 0.0 0.0 0.00 0.00 0.00 33 1008.5
20190422101108 22 45 0.0 0.0 0.00 0.00 0.00 35 1009.6
20190422100036 22 45 0.0 0.0 0.00 0.00 0.00 35 1009.6
20190422095008 22 180 0.0 0.0 0.00 0.00 0.00 42 1009.6
20190422093931 21 225 0.0 0.0 0.00 0.00 0.00 37 1009.6
20190422092908 21 203 0.0 0.0 0.00 0.00 0.00 44 1009.6
20190422091853 20 225 0.0 0.0 0.00 0.00 0.00 44 1009.6
20190422090822 20 203 0.0 0.0 0.00 0.00 0.00 41 1010.6
20190422085820 20 90 0.0 0.0 0.00 0.00 0.00 43 1010.6
20190422084820 20 158 0.0 0.0 0.00 0.00 0.00 44 1010.6
20190422083800 19 113 0.0 0.0 0.00 0.00 0.00 44 1010.6
20190422082759 18 203 0.0 0.0 0.00 0.00 0.00 48 1010.6
20190422081724 18 180 0.0 0.0 0.00 0.00 0.00 46 1010.6
20190422080717 18 203 0.0 0.0 0.00 0.00 0.00 50 1011.7
20190422075702 17 180 0.0 0.0 0.00 0.00 0.00 49 1011.7
20190422074700 16 203 0.0 0.0 0.00 0.00 0.00 49 1010.6
20190422073625 16 203 0.0 0.0 0.00 0.00 0.00 50 1011.7
20190422072600 16 45 0.0 0.0 0.00 0.00 0.00 50 1011.7
20190422071555 15 248 0.0 0.0 0.00 0.00 0.00 54 1011.7
20190422070518 14 248 0.0 0.0 0.00 0.00 0.00 57 1011.7
20190422065512 13 270 0.0 0.0 0.00 0.00 0.00 56 1011.7
20190422064444 12 270 0.0 0.0 0.00 0.00 0.00 61 1012.7
20190422063443 11 270 0.0 0.0 0.00 0.00 0.00 64 1011.7
20190422062442 10 270 0.0 0.0 0.00 0.00 0.00 69 1011.7
20190422061438 9 270 0.0 0.0 0.00 0.00 0.00 75 1012.7
20190422060421 7 270 0.0 0.0 0.00 0.00 0.00 82 1012.7